Weather History for KXSA - September, 2013

Change the Weather History Date:

Thursday, September 12, 2013

  Actual Average (KRIC) Record (KRIC)
Temperature  
Mean Temperature 80 °F 72 °F  
Max Temperature 92 °F 83 °F 98 °F (1900)
Min Temperature 69 °F 62 °F 43 °F (1967)
Degree Days  
Heating Degree Days 0 0  
Month to date heating degree days 0  
Since 1 July heating degree days 1  
Cooling Degree Days 16 8  
Month to date cooling degree days 108  
Year to date cooling degree days 1415  
Growing Degree Days 30 (Base 50)    
Moisture  
Dew Point 69 °F    
Average Humidity 77    
Maximum Humidity 99    
Minimum Humidity 45    
Precipitation  
Precipitation 0.00 in 0.15 in 2.07 in (2003)
Month to date precipitation 1.72  
Year to date precipitation 31.71  
Snow  
Snow 0.00 in 0.00 in 0.00 in (2002)
Month to date snowfall 0.0  
Since 1 July snowfall 0.0  
Snow Depth -    
Sea Level Pressure  
Sea Level Pressure 29.89 in    
Wind  
Wind Speed 4 mph (South)    
Max Wind Speed 10 mph    
Max Gust Speed -    
Visibility 8 miles    
Events Rain , Thunderstorm    
T = Trace of Precipitation, MM = Missing Value Source: NWS Daily Summary

Daily Weather History Graph

Daily Weather History Graph

Search for Another Location

Airport or City:

Trip Planner

Search our weather history database for the weather conditions in past years. The results will help you decide how hot, cold, wet, or windy it might be!

Date:

Astronomy

Sep. 12, 2013 Rise Set
Actual Time 6:47 AM EDT 7:19 PM EDT
Civil Twilight 6:20 AM EDT 7:46 PM EDT
Nautical Twilight 5:49 AM EDT 8:17 PM EDT
Astronomical Twilight 5:17 AM EDT 8:49 PM EDT
Moon 2:05 PM EDT (9/12) No Moon Set
Length of Visible Light 13h 25m
Length of Day
12h 32m
Waxing Crescent, 50% of the Moon is Illuminated
Sep 12
Waxing Crescent
Sep 12
First Quarter
Sep 19
Full
Sep 26
Last Quarter
Oct 4
New

Hourly Weather History & Observations

Time (EDT) Temp. Heat Index Dew Point Humidity Pressure Visibility Wind Dir Wind Speed Gust Speed Precip Events Conditions
12:15 AM 72.7 °F - 69.4 °F 90% 30.05 in 10.0 mi South 3.5 mph - N/A   Clear
12:35 AM 72.9 °F - 68.9 °F 87% 30.04 in 10.0 mi South 3.5 mph - N/A   Clear
12:55 AM 72.7 °F - 68.4 °F 86% 30.03 in 10.0 mi South 3.5 mph - N/A   Clear
1:15 AM 72.7 °F - 68.2 °F 86% 30.03 in 10.0 mi South 4.6 mph - N/A   Clear
1:35 AM 72.3 °F - 68.9 °F 89% 30.02 in 10.0 mi South 4.6 mph - N/A   Clear
1:55 AM 72.0 °F - 69.3 °F 91% 30.02 in 10.0 mi South 3.5 mph - N/A   Clear
2:15 AM 71.8 °F - 69.3 °F 92% 30.01 in 10.0 mi South 5.8 mph - N/A   Clear
2:35 AM 71.8 °F - 69.1 °F 91% 30.01 in 10.0 mi South 4.6 mph - N/A   Clear
2:55 AM 71.6 °F - 68.9 °F 91% 30.00 in 7.0 mi South 4.6 mph - N/A   Clear
3:15 AM 71.2 °F - 69.1 °F 93% 30.00 in 7.0 mi SSW 3.5 mph - N/A   Clear
3:35 AM 71.2 °F - 68.9 °F 92% 29.99 in 7.0 mi South 5.8 mph - N/A   Clear
3:55 AM 70.7 °F - 68.9 °F 94% 29.99 in 7.0 mi South 4.6 mph - N/A   Clear
4:15 AM 70.7 °F - 68.9 °F 94% 29.98 in 7.0 mi South 4.6 mph - N/A   Clear
4:35 AM 70.7 °F - 68.9 °F 94% 29.99 in 7.0 mi South 4.6 mph - N/A   Clear
4:55 AM 70.3 °F - 68.9 °F 95% 29.98 in 7.0 mi South 3.5 mph - N/A   Clear
5:15 AM 70.5 °F - 68.9 °F 95% 29.98 in 7.0 mi South 6.9 mph - N/A   Clear
5:35 AM 70.2 °F - 68.7 °F 95% 29.98 in 7.0 mi South 3.5 mph - N/A   Clear
5:55 AM 70.2 °F - 68.7 °F 95% 29.98 in 7.0 mi South 3.5 mph - N/A   Clear
6:15 AM 70.0 °F - 68.9 °F 96% 29.98 in 7.0 mi South 4.6 mph - N/A   Clear
6:35 AM 69.4 °F - 68.5 °F 97% 29.98 in 5.0 mi South 4.6 mph - N/A   Clear
6:55 AM 69.6 °F - 68.7 °F 97% 29.98 in 5.0 mi South 4.6 mph - N/A   Clear
7:15 AM 69.8 °F - 68.9 °F 97% 29.99 in 4.0 mi South 3.5 mph - N/A   Clear
7:35 AM 69.8 °F - 68.9 °F 97% 29.99 in 5.0 mi South 3.5 mph - N/A   Clear
7:55 AM 69.8 °F - 68.5 °F 96% 29.99 in 5.0 mi Calm Calm - N/A   Clear
8:15 AM 70.9 °F - 69.4 °F 95% 29.98 in 5.0 mi South 3.5 mph - N/A   Clear
8:35 AM 71.2 °F - 68.9 °F 92% 29.98 in 7.0 mi South 3.5 mph - N/A   Clear
8:55 AM 73.6 °F - 69.1 °F 86% 29.97 in 7.0 mi SW 4.6 mph - N/A   Clear
9:15 AM 75.7 °F - 69.1 °F 80% 29.97 in 10.0 mi SSW 5.8 mph - N/A   Clear
9:35 AM 77.9 °F - 69.8 °F 76% 29.96 in 10.0 mi SSW 5.8 mph - N/A   Clear
9:55 AM 79.7 °F - 69.8 °F 72% 29.96 in 10.0 mi SSW 4.6 mph - N/A   Clear
10:15 AM 79.9 °F - 70.0 °F 72% 29.95 in 10.0 mi South 4.6 mph - N/A   Clear
10:35 AM 82.0 °F 85.9 °F 70.2 °F 67% 29.95 in 10.0 mi SSE 3.5 mph - N/A   Clear
10:55 AM 83.1 °F 87.1 °F 70.0 °F 64% 29.94 in 10.0 mi South 3.5 mph - N/A   Clear
11:15 AM 84.9 °F 89.1 °F 69.8 °F 60% 29.93 in 10.0 mi South 5.8 mph - N/A   Clear
11:35 AM 86.4 °F 90.7 °F 69.6 °F 57% 29.93 in 10.0 mi SSW 3.5 mph - N/A   Clear
11:55 AM 87.8 °F 92.6 °F 69.6 °F 55% 29.92 in 10.0 mi SSW 4.6 mph - N/A   Clear
12:15 PM 88.2 °F 92.9 °F 69.6 °F 54% 29.91 in 10.0 mi SSW 8.1 mph - N/A   Clear
12:35 PM 89.2 °F 93.6 °F 69.1 °F 51% 29.91 in 10.0 mi South 6.9 mph - N/A   Clear
12:55 PM 89.1 °F 93.3 °F 68.9 °F 51% 29.89 in 10.0 mi South 4.6 mph - N/A   Clear
1:15 PM 89.8 °F 95.1 °F 69.8 °F 52% 29.89 in 10.0 mi South 9.2 mph - N/A   Clear
1:35 PM 89.6 °F 95.2 °F 70.2 °F 53% 29.88 in 10.0 mi SSE 9.2 mph - N/A   Clear
1:55 PM 90.9 °F 95.8 °F 69.3 °F 49% 29.86 in 10.0 mi SSW 6.9 mph - N/A   Clear
2:15 PM 90.9 °F 95.8 °F 69.1 °F 49% 29.85 in 10.0 mi South 8.1 mph - N/A   Clear
2:35 PM 91.2 °F 96.0 °F 68.9 °F 48% 29.85 in 10.0 mi South 8.1 mph - N/A   Clear
2:55 PM 92.1 °F 96.2 °F 68.2 °F 45% 29.83 in 10.0 mi SSW 8.1 mph - N/A   Clear
3:15 PM 92.1 °F 96.2 °F 68.2 °F 45% 29.82 in 10.0 mi South 6.9 mph - N/A   Scattered Clouds
3:35 PM 90.5 °F 95.1 °F 68.7 °F 49% 29.81 in 10.0 mi SSW 10.4 mph - N/A   Scattered Clouds
3:55 PM 90.5 °F 95.5 °F 69.4 °F 50% 29.79 in 10.0 mi South 5.8 mph - N/A   Scattered Clouds
4:15 PM 89.4 °F 94.0 °F 69.1 °F 51% 29.78 in 10.0 mi SSW 8.1 mph - N/A   Scattered Clouds
4:35 PM 90.1 °F 94.9 °F 69.1 °F 50% 29.78 in 10.0 mi SSW 8.1 mph - N/A   Clear
4:55 PM 89.6 °F 94.7 °F 69.8 °F 52% 29.77 in 10.0 mi South 5.8 mph - N/A   Clear
5:15 PM 89.6 °F 94.3 °F 69.1 °F 51% 29.77 in 10.0 mi South 4.6 mph - N/A   Scattered Clouds
5:35 PM 88.5 °F 93.1 °F 69.6 °F 53% 29.77 in 10.0 mi SSW 6.9 mph - N/A   Scattered Clouds
5:55 PM 86.0 °F 90.7 °F 70.0 °F 59% 29.77 in 10.0 mi SSW 5.8 mph - N/A   Clear
6:15 PM 84.9 °F 89.7 °F 70.7 °F 62% 29.76 in 10.0 mi South 3.5 mph - N/A   Clear
6:35 PM 82.9 °F 87.7 °F 71.2 °F 68% 29.77 in 10.0 mi SSW 3.5 mph - N/A   Clear
6:55 PM 80.8 °F 85.4 °F 72.9 °F 77% 29.77 in 10.0 mi Calm Calm - N/A   Clear
7:15 PM 81.3 °F 83.5 °F 66.4 °F 60% 29.78 in 10.0 mi WNW 10.4 mph - N/A   Mostly Cloudy
7:35 PM 79.7 °F - 63.7 °F 58% 29.77 in 10.0 mi NW 3.5 mph - N/A Rain , Thunderstorm Light Thunderstorms and Rain
7:55 PM 79.2 °F - 64.2 °F 60% 29.78 in 10.0 mi Calm Calm - N/A Rain , Thunderstorm Light Thunderstorms and Rain
8:15 PM 75.2 °F - 66.9 °F 75% 29.81 in 10.0 mi South 8.1 mph - N/A Rain , Thunderstorm Light Thunderstorms and Rain
8:35 PM 74.7 °F - 67.3 °F 78% 29.80 in 10.0 mi SSE 3.5 mph - N/A Rain , Thunderstorm Light Thunderstorms and Rain
8:55 PM 73.6 °F - 68.4 °F 84% 29.78 in 10.0 mi Calm Calm - N/A Rain , Thunderstorm Light Thunderstorms and Rain
9:15 PM 72.5 °F - 70.3 °F 93% 29.78 in 7.0 mi NE 3.5 mph - N/A Rain Light Rain
9:35 PM 71.6 °F - 70.7 °F 97% 29.78 in 7.0 mi Calm Calm - N/A Rain , Thunderstorm Light Thunderstorms and Rain
9:55 PM 71.6 °F - 70.9 °F 98% 29.78 in 7.0 mi Calm Calm - N/A   Scattered Clouds
10:15 PM 71.6 °F - 70.9 °F 98% 29.78 in 5.0 mi Calm Calm - N/A   Scattered Clouds
10:35 PM 71.2 °F - 70.9 °F 99% 29.78 in 3.0 mi SSE 3.5 mph - N/A   Mostly Cloudy
10:55 PM 71.2 °F - 71.1 °F 99% 29.77 in 5.0 mi East 3.5 mph - N/A Rain Light Rain
11:15 PM 70.9 °F - 70.7 °F 99% 29.77 in 5.0 mi Calm Calm - N/A   Mostly Cloudy
11:35 PM 70.9 °F - 70.7 °F 99% 29.78 in 5.0 mi Calm Calm - N/A   Mostly Cloudy
11:55 PM 70.9 °F - 70.5 °F 99% 29.79 in 5.0 mi West 4.6 mph - N/A Rain Light Rain